Location: Boulder Knolls Observatory
(33.2250°N, 117.1147°W)
Time: 13:45:21
(UTC-08:00)

N. Korean satellite - Visible Passes

Search period start: 22 November 2017 00:00
Search period end: 02 December 2017 00:00
Orbit: 460 x 514 km, 97.2° (Epoch: 22 November)

Date Brightness Start Highest point End Pass type
(mag) Time Alt. Az. Time Alt. Az. Time Alt. Az.
22 Nov 7.5 17:20:48 10° SE 17:23:45 26° ENE 17:26:47 10° NNE visible
22 Nov 9.9 18:55:46 10° WSW 18:57:18 12° W 18:58:50 10° WNW visible
23 Nov 8.8 18:30:43 10° SSW 18:33:40 26° W 18:36:42 10° NW visible
24 Nov 8.9 06:01:34 10° NNE 06:04:56 31° E 06:08:18 10° SSE visible
24 Nov 7.1 18:06:41 10° S 18:10:07 58° W 18:13:39 10° NNW visible
25 Nov 9.9 05:39:02 10° NE 05:41:21 16° E 05:43:39 10° SE visible
25 Nov 6.5 17:43:12 10° SSE 17:46:40 59° ENE 17:50:11 10° N visible
26 Nov 7.5 17:20:16 10° SE 17:23:16 27° ENE 17:26:18 10° NNE visible
26 Nov 9.9 18:55:10 10° WSW 18:56:47 13° W 18:58:26 10° WNW visible
27 Nov 8.8 18:30:09 10° SSW 18:33:09 26° W 18:36:14 10° NW visible
28 Nov 8.9 06:01:04 10° NNE 06:04:27 31° E 06:07:48 10° SSE visible
28 Nov 7.1 18:06:07 10° S 18:09:35 59° W 18:13:09 10° NNW visible
29 Nov 9.9 05:38:33 10° ENE 05:40:50 15° E 05:43:06 10° SE visible
29 Nov 6.5 17:42:37 10° SSE 17:46:06 59° ENE 17:49:40 10° N visible
30 Nov 7.5 17:19:39 10° SE 17:22:41 27° ENE 17:25:46 10° NNE visible
30 Nov 9.9 18:54:29 10° WSW 18:56:12 13° W 18:57:57 10° WNW visible
01 Dec 8.8 18:29:29 10° SSW 18:32:33 27° W 18:35:41 10° NW visible
